Back to catalog

NOAA 16 DEB

AlivePO
NORAD 41132·DEBRIS·🇺🇸 United States

Launched Sep 21, 2000 from Vandenberg Space Force Base

Loading…

Next Passes (next 24 hours)

TLE

FreshSource: Space-Track

Epoch: Sep 14, 2026, 07:50 UTC

1 41132U 00055BP  26257.32663235  .00006863  00000-0  12306-2 0  9990
2 41132  98.8647  84.8072 0027683  76.8483 283.5805 14.66864088562764

Track NOAA 16 DEB in real time with AllMySat

Download on the App Store